Weather History for KLUF - April, 2014

Change the Weather History Date:

Tuesday, April 1, 2014

  Actual Average (KPHX) Record (KPHX)
Temperature  
Mean Temperature 64 °F 69 °F  
Max Temperature 75 °F 81 °F 100 °F (2011)
Min Temperature 54 °F 56 °F 37 °F (1904)
Degree Days  
Heating Degree Days 0 1  
Month to date heating degree days 1  
Since 1 July heating degree days 915  
Cooling Degree Days 0 5  
Month to date cooling degree days 5  
Year to date cooling degree days 109  
Growing Degree Days 14 (Base 50)    
Moisture  
Dew Point 28 °F    
Average Humidity 25    
Maximum Humidity 42    
Minimum Humidity 13    
Precipitation  
Precipitation 0.00 in 0.02 in 0.46 in (1992)
Month to date precipitation 0.02  
Year to date precipitation 2.84  
Snow  
Snow 0.00 in - - ()
Month to date snowfall  
Year to date snowfall  
Since 1 July snowfall  
Snow Depth -    
Sea Level Pressure  
Sea Level Pressure 29.82 in    
Wind  
Wind Speed 10 mph (SW)    
Max Wind Speed 21 mph    
Max Gust Speed 28 mph    
Visibility 10 miles    
Events      
T = Trace of Precipitation, MM = Missing Value Source: NWS Daily Summary

Daily Weather History Graph

Daily Weather History Graph

Search for Another Location

Airport or City:

Trip Planner

Search our weather history database for the weather conditions in past years. The results will help you decide how hot, cold, wet, or windy it might be!

Date:

Astronomy

Apr. 01, 2014 Rise Set
Actual Time 6:17 AM MST 6:50 PM MST
Civil Twilight 5:52 AM MST 7:15 PM MST
Nautical Twilight 5:22 AM MST 7:44 PM MST
Astronomical Twilight 4:52 AM MST 8:14 PM MST
Moon 7:28 AM MST (4/1) 9:09 PM MST (4/1)
Length of Visible Light 13h 23m
Length of Day
12h 33m
Waxing Crescent, 5% of the Moon is Illuminated
Apr 1
Waxing Crescent
Apr 7
First Quarter
Apr 15
Full
Apr 22
Last Quarter
Apr 28
New

Hourly Weather History & Observations

Time (MST) Temp. Dew Point Humidity Pressure Visibility Wind Dir Wind Speed Gust Speed Precip Events Conditions
12:58 AM 58.6 °F 19.0 °F 21% 29.83 in 10.0 mi WSW 6.9 mph - N/A   Clear
1:58 AM 57.4 °F 21.0 °F 24% 29.83 in 10.0 mi SSW 6.9 mph - N/A   Clear
2:58 AM 59.7 °F 13.6 °F 16% 29.84 in 10.0 mi South 4.6 mph - N/A   Clear
3:58 AM 59.7 °F 20.1 °F 22% 29.83 in 10.0 mi South 10.4 mph - N/A   Clear
4:58 AM 58.5 °F 24.1 °F 27% 29.83 in 10.0 mi SSW 10.4 mph - N/A   Clear
5:58 AM 56.8 °F 25.9 °F 30% 29.83 in 10.0 mi SW 8.1 mph - N/A   Clear
6:58 AM 54.3 °F 28.6 °F 37% 29.85 in 10.0 mi SW 5.8 mph - N/A   Clear
7:58 AM 60.4 °F 27.1 °F 28% 29.87 in 10.0 mi SSW 11.5 mph - N/A   Clear
8:58 AM 64.8 °F 26.4 °F 23% 29.88 in 10.0 mi SSW 13.8 mph - N/A   Clear
9:58 AM 68.0 °F 21.9 °F 17% 29.89 in 10.0 mi SW 12.7 mph - N/A   Clear
10:58 AM 70.3 °F 19.2 °F 14% 29.89 in 10.0 mi SW 12.7 mph 20.7 mph N/A   Clear
11:58 AM 72.0 °F 18.1 °F 13% 29.87 in 10.0 mi WSW 18.4 mph 24.2 mph N/A   Clear
12:58 PM 72.7 °F 25.3 °F 17% 29.85 in 10.0 mi SW 19.6 mph 25.3 mph N/A   Clear
1:58 PM 73.9 °F 26.8 °F 17% 29.83 in 10.0 mi SSW 19.6 mph 27.6 mph N/A   Clear
3:58 PM 75.7 °F 31.3 °F 20% 29.79 in 10.0 mi SW 20.7 mph 27.6 mph N/A   Clear
4:58 PM 75.2 °F 32.9 °F 21% 29.77 in 10.0 mi SSW 17.3 mph 27.6 mph N/A   Clear
5:58 PM 73.6 °F 35.1 °F 25% 29.77 in 10.0 mi SW 17.3 mph - N/A   Clear
6:58 PM 69.8 °F 35.1 °F 28% 29.78 in 10.0 mi SW 15.0 mph 25.3 mph N/A   Clear
7:58 PM 66.2 °F 36.5 °F 33% 29.77 in 10.0 mi WSW 13.8 mph - N/A   Clear
8:58 PM 65.1 °F 35.6 °F 33% 29.79 in 10.0 mi WSW 4.6 mph - N/A   Clear
9:58 PM 63.9 °F 36.1 °F 36% 29.79 in 10.0 mi WSW 5.8 mph - N/A   Clear
10:58 PM 61.0 °F 37.6 °F 42% 29.79 in 10.0 mi WSW 5.8 mph - N/A   Clear
11:58 PM 60.1 °F 36.5 °F 41% 29.80 in 10.0 mi Calm Calm - N/A   Clear